Location: Kerguer�zec
(48.4509°N, 4.7600°W)
Time: 01:20:41
(UTC+00:00)

NOSS 3-4 (C) - Pass Details

Date: 09 April 2020
Orbit: 897 x 1316 km, 63.4° (Epoch: 30 May)

Event Time Altitude Azimuth Distance (km) Brightness Sun altitude
Rises 19:23:37 0° 318° (NW) 3,799 7.8 -4.3°
Reaches altitude 10° 19:26:07 10° 319° (NW) 2,899 7.1 -4.7°
Maximum altitude 19:33:05 86° 48° (NE) 1,158 3.9 -5.8°
Drops below altitude 10° 19:40:47 10° 139° (SE) 3,190 5.7 -7.0°
Enters shadow 19:42:40 - 140° (SE) 3,847 6.1 -7.3°
